Weather History for Frankfort, MI

Change the Weather History Date:

Thursday, January 3, 2013

  Actual Average (KTVC) Record (KTVC)
Temperature  
Mean Temperature 27 °F 23 °F  
Max Temperature 29 °F 29 °F 54 °F (1897)
Min Temperature 25 °F 17 °F -13 °F (1918)
Degree Days  
Heating Degree Days 38 42  
Month to date heating degree days 126  
Since 1 July heating degree days 2934  
Moisture  
Dew Point 21 °F    
Average Humidity 79    
Maximum Humidity 88    
Minimum Humidity 70    
Precipitation  
Precipitation 0.00 in 0.09 in 0.51 in (1989)
Month to date precipitation 0.28  
Year to date precipitation 0.28  
Sea Level Pressure  
Sea Level Pressure 30.02 in    
Wind  
Wind Speed 8 mph (West)    
Max Wind Speed 15 mph    
Max Gust Speed 24 mph    
Visibility 8 miles    
Events Snow    
T = Trace of Precipitation, MM = Missing Value Source: NWS Daily Summary

Daily Weather History Graph

Daily Weather History Graph

Search for Another Location

Airport:

Trip Planner

Search our weather history database for the weather conditions in past years. The results will help you decide how hot, cold, wet, or windy it might be!

Date:

Astronomy

Jan. 03, 2013 Rise Set
Actual Time 8:21 AM EST 5:17 PM EST
Civil Twilight 7:48 AM EST 5:50 PM EST
Nautical Twilight 7:11 AM EST 6:27 PM EST
Astronomical Twilight 6:36 AM EST 7:02 PM EST
Moon No Moon Rise 11:16 AM EST (1/3)
Length of Visible Light 10h 02m
Length of Day
8h 55m
Waning Gibbous, 65% of the Moon is Illuminated
Jan 3
Waning Gibbous
Jan 4
Last Quarter
Jan 11
New
Jan 18
First Quarter
Jan 26
Full

Hourly Weather History & Observations

Time (EST) Temp. Windchill Dew Point Humidity Pressure Visibility Wind Dir Wind Speed Gust Speed Precip Events Conditions
12:11 AM 25.7 °F 19.0 °F 21.9 °F 86% 30.02 in 5.0 mi South 5.8 mph - N/A Snow Light Snow
12:31 AM 25.7 °F 20.1 °F 22.1 °F 86% 30.01 in 7.0 mi SSE 4.6 mph - N/A Snow Light Snow
12:52 AM 25.7 °F 19.0 °F 22.1 °F 86% 30.00 in 5.0 mi SSE 5.8 mph - N/A Snow Light Snow
1:12 AM 25.7 °F 20.1 °F 22.5 °F 88% 30.00 in 5.0 mi South 4.6 mph - N/A Snow Light Snow
1:32 AM 26.1 °F 18.4 °F 22.6 °F 87% 29.99 in 7.0 mi SSE 6.9 mph - N/A Snow Light Snow
1:52 AM 26.1 °F 19.4 °F 22.6 °F 87% 29.99 in 10.0 mi SSE 5.8 mph - N/A Snow Light Snow
2:12 AM 26.4 °F 18.9 °F 22.8 °F 86% 29.99 in 7.0 mi SSE 6.9 mph - N/A Snow Light Snow
2:32 AM 26.4 °F 18.9 °F 23.0 °F 87% 29.99 in 4.0 mi SSE 6.9 mph - N/A Snow Light Snow
2:52 AM 26.4 °F 20.9 °F 23.0 °F 87% 29.99 in 5.0 mi South 4.6 mph - N/A Snow Light Snow
3:12 AM 26.2 °F 20.7 °F 22.6 °F 86% 29.99 in 7.0 mi SSE 4.6 mph - N/A Snow Light Snow
3:32 AM 26.2 °F 20.7 °F 22.8 °F 87% 29.98 in 7.0 mi SSE 4.6 mph - N/A Snow Light Snow
3:52 AM 26.1 °F 19.4 °F 22.6 °F 87% 29.98 in 7.0 mi SE 5.8 mph - N/A Snow Light Snow
4:13 AM 25.7 °F 20.1 °F 22.6 °F 88% 29.98 in 10.0 mi SE 4.6 mph - N/A Snow Light Snow
4:33 AM 25.9 °F 20.3 °F 22.3 °F 86% 29.97 in 10.0 mi SSW 4.6 mph - N/A   Overcast
4:53 AM 27.3 °F 20.9 °F 21.7 °F 80% 29.96 in 7.0 mi WSW 5.8 mph - N/A Snow Light Snow
5:13 AM 27.1 °F 18.2 °F 21.2 °F 78% 29.96 in 7.0 mi WSW 9.2 mph - N/A Snow Light Snow
5:33 AM 26.8 °F 18.5 °F 20.7 °F 78% 29.97 in 10.0 mi West 8.1 mph - N/A   Overcast
5:53 AM 26.6 °F 20.0 °F 20.1 °F 77% 29.97 in 10.0 mi West 5.8 mph - N/A   Overcast
6:13 AM 26.6 °F 18.2 °F 20.1 °F 77% 29.97 in 10.0 mi West 8.1 mph - N/A   Overcast
6:33 AM 26.6 °F 18.2 °F 19.9 °F 76% 29.98 in 10.0 mi West 8.1 mph - N/A   Overcast
6:53 AM 26.6 °F 18.2 °F 19.4 °F 74% 29.98 in 10.0 mi West 8.1 mph - N/A   Overcast
7:14 AM 26.4 °F 17.3 °F 19.4 °F 75% 29.99 in 10.0 mi West 9.2 mph - N/A   Overcast
7:34 AM 26.6 °F 17.5 °F 19.8 °F 75% 29.99 in 10.0 mi WNW 9.2 mph - N/A   Overcast
7:54 AM 26.6 °F 18.2 °F 19.8 °F 75% 29.99 in 10.0 mi WNW 8.1 mph - N/A   Overcast
8:34 AM 26.1 °F 16.8 °F 19.6 °F 76% 30.00 in 4.0 mi WNW 9.2 mph - N/A Snow Light Snow
8:54 AM 25.7 °F 16.4 °F 20.3 °F 80% 30.00 in 4.0 mi WNW 9.2 mph - N/A Snow Light Snow
9:14 AM 26.1 °F 18.4 °F 20.3 °F 79% 30.00 in 4.0 mi WNW 6.9 mph - N/A Snow Light Snow
9:34 AM 26.2 °F 18.6 °F 20.8 °F 80% 30.01 in 3.0 mi WNW 6.9 mph - N/A Snow Light Snow
9:54 AM 26.4 °F 17.3 °F 20.3 °F 78% 30.01 in 7.0 mi West 9.2 mph - N/A   Overcast
10:15 AM 26.6 °F 17.5 °F 20.3 °F 77% 30.01 in 7.0 mi WNW 9.2 mph - N/A Snow Light Snow
10:35 AM 26.6 °F 16.8 °F 20.3 °F 77% 30.02 in 5.0 mi WNW 10.4 mph - N/A Snow Light Snow
10:55 AM 26.2 °F 15.8 °F 20.3 °F 78% 30.03 in 5.0 mi NW 11.5 mph - N/A Snow Light Snow
11:15 AM 26.2 °F 17.8 °F 20.1 °F 78% 30.04 in 5.0 mi WNW 8.1 mph - N/A Snow Light Snow
11:35 AM 26.6 °F 18.2 °F 20.1 °F 77% 30.04 in 10.0 mi NW 8.1 mph - N/A   Overcast
11:55 AM 27.0 °F 19.5 °F 21.0 °F 78% 30.04 in 5.0 mi WNW 6.9 mph - N/A Snow Light Snow
12:15 PM 27.5 °F 19.3 °F 22.1 °F 80% 30.03 in 10.0 mi WNW 8.1 mph - N/A   Overcast
12:35 PM 27.5 °F 18.6 °F 22.8 °F 83% 30.02 in 10.0 mi WNW 9.2 mph - N/A   Overcast
12:56 PM 27.5 °F 17.4 °F 23.0 °F 83% 30.02 in 10.0 mi WNW 11.5 mph - N/A   Overcast
1:16 PM 27.9 °F 17.8 °F 23.0 °F 82% 30.01 in 7.0 mi NW 11.5 mph - N/A Snow Light Snow
1:36 PM 28.2 °F 17.7 °F 23.2 °F 81% 30.01 in 7.0 mi WNW 12.7 mph - N/A Snow Light Snow
1:56 PM 28.4 °F 20.4 °F 23.4 °F 81% 30.01 in 10.0 mi WNW 8.1 mph - N/A   Overcast
2:16 PM 28.8 °F 19.0 °F 23.5 °F 81% 30.01 in 10.0 mi NW 11.5 mph 17.3 mph N/A   Overcast
2:36 PM 28.9 °F 18.2 °F 22.8 °F 78% 30.01 in 10.0 mi NW 13.8 mph 17.3 mph N/A   Overcast
2:56 PM 29.3 °F 18.6 °F 22.3 °F 75% 30.02 in 10.0 mi NW 13.8 mph 18.4 mph N/A   Overcast
3:11 PM 29.3 °F 20.2 °F 21.7 °F 73% 30.02 in 10.0 mi NNW 10.4 mph 18.4 mph N/A   Overcast
3:31 PM 29.3 °F 20.8 °F 21.6 °F 73% 30.03 in 10.0 mi NW 9.2 mph 16.1 mph N/A   Overcast
3:51 PM 29.3 °F 18.6 °F 21.7 °F 73% 30.04 in 10.0 mi WNW 13.8 mph 18.4 mph N/A   Overcast
4:12 PM 29.1 °F 18.9 °F 21.9 °F 74% 30.05 in 10.0 mi WNW 12.7 mph 20.7 mph N/A   Overcast
4:32 PM 29.3 °F 20.8 °F 21.9 °F 74% 30.05 in 10.0 mi WNW 9.2 mph - N/A   Overcast
4:52 PM 29.1 °F 19.4 °F 21.2 °F 72% 30.06 in 10.0 mi WNW 11.5 mph 17.3 mph N/A   Overcast
5:12 PM 28.9 °F 19.8 °F 21.2 °F 73% 30.06 in 10.0 mi WNW 10.4 mph 16.1 mph N/A   Overcast
5:52 PM 28.9 °F 20.4 °F 20.7 °F 71% 30.07 in 10.0 mi West 9.2 mph 18.4 mph N/A   Overcast
6:12 PM 29.1 °F 20.0 °F 20.5 °F 70% 30.08 in 10.0 mi West 10.4 mph 18.4 mph N/A   Overcast
6:32 PM 28.9 °F 18.6 °F 20.5 °F 71% 30.08 in 10.0 mi WNW 12.7 mph 18.4 mph N/A   Overcast
6:52 PM 28.9 °F 21.1 °F 21.2 °F 73% 30.08 in 10.0 mi West 8.1 mph 16.1 mph N/A   Overcast
7:13 PM 28.9 °F 18.6 °F 21.2 °F 73% 30.08 in 10.0 mi West 12.7 mph 17.3 mph N/A   Overcast
7:33 PM 28.4 °F 18.0 °F 21.6 °F 76% 30.08 in 10.0 mi West 12.7 mph 23.0 mph N/A   Overcast
7:53 PM 28.2 °F 18.3 °F 21.2 °F 75% 30.08 in 10.0 mi WSW 11.5 mph - N/A   Overcast
8:13 PM 28.0 °F 18.6 °F 21.2 °F 76% 30.08 in 10.0 mi West 10.4 mph 19.6 mph N/A   Overcast
8:33 PM 27.9 °F 16.3 °F 21.2 °F 76% 30.08 in 10.0 mi WSW 15.0 mph 21.9 mph N/A   Overcast
8:53 PM 27.5 °F 18.6 °F 21.2 °F 77% 30.07 in 10.0 mi WSW 9.2 mph - N/A   Overcast
9:13 PM 27.3 °F 17.1 °F 21.4 °F 78% 30.07 in 10.0 mi West 11.5 mph - N/A   Overcast
9:33 PM 27.1 °F 16.9 °F 20.8 °F 77% 30.07 in 10.0 mi WSW 11.5 mph 23.0 mph N/A   Overcast
9:54 PM 27.1 °F 15.4 °F 20.8 °F 77% 30.06 in 10.0 mi West 15.0 mph 21.9 mph N/A   Overcast
10:14 PM 27.1 °F 16.9 °F 20.8 °F 77% 30.05 in 10.0 mi SW 11.5 mph 23.0 mph N/A   Overcast
10:34 PM 27.5 °F 16.8 °F 21.4 °F 78% 30.05 in 10.0 mi WSW 12.7 mph 21.9 mph N/A   Overcast
10:54 PM 27.7 °F 16.6 °F 21.7 °F 78% 30.04 in 10.0 mi WSW 13.8 mph 24.2 mph N/A   Overcast
11:14 PM 28.0 °F 16.5 °F 21.9 °F 78% 30.04 in 10.0 mi WSW 15.0 mph 21.9 mph N/A   Overcast
11:34 PM 28.2 °F 16.8 °F 22.6 °F 80% 30.03 in 10.0 mi WSW 15.0 mph 24.2 mph N/A   Overcast
11:54 PM 28.0 °F 17.0 °F 22.6 °F 80% 30.03 in 10.0 mi WSW 13.8 mph 21.9 mph N/A   Overcast